CAPE
18 18 17 20 24 36 0 0 0 0 0 1 3 0 0 1 0 0 0 0 0 0 0 0 0 0 2 0 4 0 0 1 0 0 0 2 0 7 15 9 10 1 12 0
12 17 18 16 29 26 0 1 0 0 0 0 4 0 3 19 3 0 0 3 5 1 0 0 0 0 0 0 0 0 0 1 0 0 0 3 13 19 23 12 5 0 8 0
13 15 23 33 32 38 0 36 0 0 0 0 0 0 8 0 3 25 18 5 0 0 0 0 0 0 3 0 0 0 0 0 0 0 10 18 10 0 17 26 11 0 0 32
15 19 22 20 32 38 3 15 0 0 0 11 1 4 12 15 14 10 0 0 3 6 11 0 0 2 1 35 33 0 0 0 12 0 0 0 3 0 13 50 7 16 0 0
22 17 23 44 42 33 34 0 0 0 0 2 3 11 9 7 0 2 6 10 19 27 25 14 1 18 12 25 4 10 7 0 1 0 0 0 0 0 13 37 12 38 1 0
37 36 28 35 52 20 13 10 2 0 0 0 0 0 0 0 5 0 2 6 10 0 0 8 7 2 0 6 1 8 15 25 0 0 0 0 0 0 0 31 0 3 31 9
35 42 57 66 72 30 8 0 0 0 0 0 0 0 0 0 0 0 0 2 17 16 0 0 0 0 10 0 0 0 1 0 0 0 0 0 0 0 1 0 2 13 2 9
38 44 43 64 71 79 0 0 14 2 0 0 0 1 1 0 0 0 0 15 8 3 20 4 9 1 0 0 0 0 0 0 0 0 2 0 0 7 0 0 0 0 0 3
55 64 50 64 70 84 0 0 19 55 0 0 0 0 0 6 0 0 1 8 0 5 0 0 5 4 0 0 0 0 0 0 0 1 10 1 0 0 5 0 0 0 0 8
58 72 47 46 50 63 0 0 0 75 20 0 0 0 0 0 1 1 4 0 5 6 0 2 7 2 1 0 1 1 0 0 0 0 5 0 0 0 1 0 0 0 0 18
56 42 49 51 55 57 1 0 0 5 5 1 3 1 0 0 0 2 0 0 0 2 0 0 0 0 0 0 0 0 0 0 0 0 4 1 0 6 15 0 0 0 0 0
53 47 62 38 46 54 48 4 0 0 16 0 0 0 0 0 0 0 5 17 8 17 28 1 1 0 0 0 0 19 0 0 0 0 0 0 0 0 0 0 0 1 2 2
53 51 52 54 53 51 46 0 2 26 59 2 0 0 0 0 0 0 5 4 3 3 9 17 8 1 4 0 0 10 36 14 8 10 11 5 1 0 0 0 0 0 0 2
51 50 57 67 62 59 50 3 2 0 34 0 0 0 0 0 0 0 0 0 18 9 20 32 10 0 5 2 13 1 14 1 1 30 16 10 13 3 2 4 0 0 0 0
55 46 43 60 65 63 39 1 8 0 0 1 0 0 0 0 0 0 0 0 0 8 10 19 1 4 19 2 8 12 17 8 2 11 14 6 11 8 1 1 2 0 0 0
47 36 45 94 74 16 0 0 3 0 0 0 0 0 0 0 0 0 0 0 0 9 22 25 35 17 7 4 7 14 21 16 10 5 5 4 3 1 0 0 3 3 0 0
44 59 11 17 8 0 0 0 0 0 2 14 1 0 0 0 0 0 0 0 0 0 15 11 1 0 34 2 2 5 13 14 11 5 5 0 0 1 0 0 0 0 0 0
27 40 17 12 7 2 0 0 4 0 0 0 0 0 0 0 0 1 0 4 11 10 24 3 5 1 4 0 2 0 1 4 0 0 0 0 0 0 0 0 0 0 0 0
50 40 20 2 0 0 6 16 19 0 0 0 0 0 0 0 25 0 0 0 0 5 3 10 2 0 0 0 1 0 1 0 0 0 0 0 0 0 0 0 0 0 0 0
17 0 0 0 0 5 19 38 15 1 0 12 5 0 0 0 1 2 3 1 0 21 1 2 0 0 2 1 1 1 2 0 0 0 0 0 0 0 0 1 0 0 1 1
0 0 3 0 12 0 0 0 0 3 13 0 3 0 8 1 2 1 0 0 0 0 0 1 0 1 1 0 0 0 0 0 0 0 0 0 0 0 1 1 1 1 0 0
0 2 0 0 4 2 1 0 1 8 0 0 0 0 0 16 48 0 0 0 0 0 0 0 0 1 1 0 1 0 0 0 0 0 0 0 0 0 0 0 0 0 0 0
11 2 1 1 0 9 0 0 3 0 0 0 1 4 4 0 0 0 0 1 0 0 0 0 0 1 2 2 1 1 0 0 0 0 0 0 0 0 0 0 0 0 0 0
0 0 0 0 0 0 0 0 0 0 0 0 0 0 0 0 0 0 0 0 0 0 0 0 0 0 0 0 0 0 0 0 0 0 0 0 0 0 0 0 0 0 0 0
0 0 0 0 0 0 0 0 0 0 0 0 0 0 0 0 0 0 0 0 0 0 0 0 0 0 0 0 0 0 0 0 0 0 0 0 0 0 0 0 0 0 0 0
0 0 0 0 0 0 0 0 0 0 0 0 0 0 0 0 0 0 0 0 0 0 0 0 0 0 0 0 0 0 0 0 0 0 0 0 0 0 0 0 0 0 0 0
0 0 0 0 0 0 0 0 0 0 0 0 0 0 0 0 0 0 0 0 0 0 0 0 0 0 0 0 0 0 0 0 0 0 0 0 0 0 0 0 0 0 0 0
CIN
0 0 0 0 0 -1 0 0 0 0 0 -13 -6 0 0 -2 -3 0 0 0 0 0 0 0 0 0 -1 0 -14 0 0 -13 0 -2 0 -38 -7 -2 0 0 0 -2 -1 -1
-1 0 0 -1 -1 -5 0 0 0 0 0 0 0 0 -1 -2 -1 0 0 -2 -2 -1 0 0 0 0 0 0 -29 0 0 -9 -1 0 0 -43 -20 -15 -6 0 -2 0 0 0
-1 0 0 -1 -1 -3 -1 0 0 0 0 0 0 0 0 0 -3 -4 -2 -1 0 0 0 0 0 0 -2 0 0 -44 0 0 0 0 -2 -12 -17 0 -1 0 0 0 0 -11
0 0 0 -1 0 -3 -15 0 0 0 0 -10 -4 -5 0 -1 0 -1 0 0 -1 -7 -4 0 0 -13 -3 -37 -81 -59 0 0 -29 0 0 0 -3 0 -1 0 0 0 0 0
0 0 -2 -2 -3 -5 -3 0 0 0 0 -2 -6 -4 -7 -1 0 0 -2 -2 -4 -4 0 -16 0 -12 -36 -26 -56 -44 -76 0 -4 0 0 0 0 0 -9 -7 -8 -1 0 0
0 -1 -5 -3 -1 -8 -1 -5 0 0 0 0 0 0 0 0 -1 0 -2 -1 -2 0 0 -28 -50 -114 0 -50 -28 -26 -20 -25 0 0 0 0 0 0 0 -7 0 -54 0 -1
0 -1 -1 0 -1 -8 -7 0 0 0 0 -1 0 0 0 0 -4 -1 0 -6 0 -29 0 0 0 -51 -97 0 0 0 -33 -11 0 0 0 0 0 0 -6 0 -22 -20 -35 -8
0 0 0 0 -1 -2 0 0 -2 0 0 0 0 -3 0 0 0 0 0 -12 -7 -4 -4 -12 -9 -2 0 0 0 0 0 0 0 0 -7 0 0 -22 0 0 0 0 0 -8
0 0 0 -3 -1 -3 0 -1 -7 0 0 0 0 0 0 -2 0 0 -6 -31 0 -27 0 0 -12 -7 -1 -1 0 0 0 0 0 -1 -4 -1 0 0 -17 0 0 0 0 -8
0 0 0 0 0 -2 -1 0 -1 0 -1 0 0 0 0 0 -7 0 0 0 0 0 0 -10 -22 -12 -19 0 -20 -11 0 0 0 0 -1 -1 0 0 -5 0 0 0 0 -39
0 0 0 0 0 0 -1 -2 0 -1 0 -2 -10 -3 0 0 0 -2 0 0 0 0 0 0 0 0 0 0 0 0 0 0 0 0 -2 -1 0 -47 -3 0 0 0 0 0
0 0 0 0 0 0 -2 -3 0 0 -1 0 0 0 0 0 0 0 -2 -4 -3 0 0 0 0 0 0 0 0 -39 0 -1 0 0 0 0 0 0 0 0 0 0 0 0
0 0 0 0 0 0 0 -1 -8 0 0 -1 0 0 0 0 0 0 -3 -17 -19 -2 0 0 0 0 0 0 0 -16 -3 0 0 -1 0 0 0 0 0 0 0 0 0 0
0 0 0 0 0 0 0 0 -2 -4 0 0 0 0 0 0 0 0 0 0 -21 -14 -1 0 0 0 -1 0 -1 0 -2 0 0 0 0 0 0 0 0 0 0 0 0 0
0 0 0 0 0 0 -1 0 -1 -2 0 0 0 0 0 0 0 0 0 0 0 -8 -3 -3 -1 -1 0 0 0 0 0 0 0 0 0 0 0 0 0 0 0 0 0 0
0 0 0 -1 -1 0 0 0 -1 0 0 0 0 0 0 0 0 0 0 0 0 -16 -1 -3 0 0 -2 0 0 0 0 0 0 0 0 0 0 0 0 0 0 0 0 0
0 0 -4 -1 0 0 0 0 0 0 -16 -1 0 0 0 0 0 0 0 0 0 0 -4 -4 -3 0 -1 0 0 0 0 0 0 0 0 0 0 0 0 0 0 0 0 0
-1 0 0 -7 -3 -8 0 -1 -1 0 -8 0 0 0 0 0 0 -4 0 -11 -13 -19 -7 -4 -1 -5 -2 0 0 0 0 0 0 0 0 0 0 0 0 0 0 0 0 0
0 -1 0 -1 0 0 0 -2 -4 0 0 0 0 0 0 0 0 -10 0 0 -1 -12 -2 -5 -8 0 0 0 0 0 0 0 0 0 0 0 0 0 0 0 0 0 0 0
0 0 0 0 0 0 -1 0 0 0 0 -3 -1 0 -1 0 0 0 -1 -6 0 0 -1 -1 0 0 0 0 0 0 0 0 0 0 0 0 0 0 0 0 0 0 0 0
0 0 0 0 -14 -3 0 0 0 0 0 0 0 0 -3 -4 0 0 0 0 0 0 0 0 0 0 0 0 0 0 0 0 0 0 0 0 0 0 0 0 0 0 0 0
0 -7 0 0 -17 0 0 0 -1 0 0 0 0 0 0 -19 -2 0 0 0 0 0 0 0 0 0 0 0 0 0 0 0 0 0 0 0 0 0 0 0 0 0 0 0
-11 -16 -1 0 0 0 0 -3 -2 -1 0 0 -12 -3 -18 0 -2 0 0 0 0 0 0 0 0 0 0 0 0 0 0 0 0 0 0 0 0 0 0 0 0 0 0 0
0 0 0 0 0 0 0 0 0 0 0 0 0 0 0 0 0 0 0 0 0 0 0 0 0 0 0 0 0 0 0 0 0 0 0 0 0 0 0 0 0 0 0 0
0 0 0 0 0 0 0 0 0 0 0 0 0 0 0 0 0 0 0 0 0 0 0 0 0 0 0 0 0 0 0 0 0 0 0 0 0 0 0 0 0 0 0 0
0 0 0 0 0 0 0 0 0 0 0 0 0 0 0 0 0 0 0 0 0 0 0 0 0 0 0 0 0 0 0 0 0 0 0 0 0 0 0 0 0 0 0 0
0 0 0 0 0 0 0 0 0 0 0 0 0 0 0 0 0 0 0 0 0 0 0 0 0 0 0 0 0 0 0 0 0 0 0 0 0 0 0 0 0 0 0 0
Wind_Speed
7 7 7 7 7 5 5 2 2 3 3 1 3 6 4 2 7 5 5 5 7 9 4 7 2 4 4 3 4 4 1 2 3 8 7 11 11 7 4 2 4 2 1 4
7 7 6 7 6 1 3 1 3 3 5 3 2 5 6 9 13 16 5 6 6 6 2 6 9 6 4 4 1 4 3 1 3 8 5 5 3 11 9 6 1 5 3 2
7 8 7 8 6 0 3 1 3 4 2 2 3 4 7 6 7 10 6 10 10 12 6 3 10 5 4 9 2 7 4 2 3 3 3 2 6 11 7 8 2 2 4 0
10 9 8 7 7 2 4 3 3 3 3 1 2 3 5 7 4 6 7 5 3 5 4 3 11 4 2 3 3 4 4 2 1 6 7 8 11 12 11 8 6 4 3 9
10 9 9 9 6 2 2 3 3 1 2 4 3 5 3 8 6 6 6 5 13 5 6 5 10 2 2 2 3 2 2 1 2 5 4 8 10 11 11 14 11 11 16 12
13 12 10 9 7 7 2 2 2 4 3 1 2 3 5 9 12 7 9 9 10 8 11 8 8 6 3 4 2 1 2 3 2 4 6 11 8 0 6 6 11 6 11 7
11 11 10 11 10 9 2 3 2 2 3 4 4 7 9 11 11 12 15 8 7 5 6 9 8 6 5 3 5 3 5 4 3 3 5 3 6 12 7 5 6 8 9 9
14 13 13 13 13 13 3 3 2 2 3 5 6 8 5 9 9 8 10 4 8 13 7 3 4 3 3 5 8 10 7 5 2 2 3 7 11 3 3 9 8 2 7 6
15 13 14 13 13 12 4 3 3 2 2 6 11 5 4 3 4 5 4 6 9 3 2 2 3 4 3 2 4 2 5 4 3 1 2 4 4 8 3 6 7 3 5 6
14 14 15 15 14 12 5 3 8 2 3 4 4 4 4 1 2 3 4 8 7 3 1 1 2 2 2 3 2 3 3 2 9 6 4 7 6 12 7 3 5 10 7 15
16 16 17 17 17 16 6 3 8 6 3 4 4 3 4 2 2 1 4 4 3 4 3 1 0 1 3 1 3 2 5 5 4 4 4 8 11 9 3 4 11 10 15 15
18 19 19 20 20 19 16 5 6 4 2 5 3 6 10 9 6 0 3 2 2 3 4 2 2 2 3 0 3 1 1 1 3 5 2 5 6 6 10 6 11 7 14 12
19 19 20 21 22 23 20 5 7 4 2 6 4 9 11 9 10 7 3 3 4 2 3 2 2 3 1 2 4 2 2 3 1 1 8 8 8 11 15 15 16 13 13 12
20 21 22 22 24 24 23 4 7 6 3 3 7 2 5 5 8 13 11 8 1 4 1 2 2 3 0 3 4 1 3 2 4 2 8 11 9 10 14 14 17 16 15 14
22 23 24 24 24 26 14 6 8 6 5 2 4 6 9 7 8 10 10 10 6 4 2 2 3 2 3 2 1 3 4 4 2 2 5 5 6 10 10 15 14 12 12 13
19 20 20 16 19 16 7 3 3 5 4 2 4 4 5 1 5 6 7 5 3 1 1 2 3 2 2 3 3 5 6 7 1 3 6 9 9 12 11 14 13 12 13 11
17 12 10 10 31 11 4 7 6 14 5 2 3 4 4 3 2 2 2 3 3 4 3 3 3 3 4 1 1 4 8 10 7 5 2 4 9 8 10 13 12 14 13 12
12 16 28 28 17 8 5 3 17 12 5 2 3 5 2 2 2 2 3 3 2 2 2 1 3 3 0 2 5 6 7 5 11 11 12 10 9 10 10 10 8 11 12 11
27 29 26 7 5 4 1 7 14 3 4 4 3 3 4 1 2 3 2 3 2 3 3 3 2 1 3 4 5 6 7 5 5 7 7 9 11 9 9 9 10 11 9 9
31 10 5 3 1 16 14 3 3 1 3 3 4 2 2 3 3 3 4 4 4 4 5 3 3 2 6 6 6 5 7 8 6 0 4 6 7 8 9 9 8 8 9 10
3 3 3 1 15 3 1 3 3 4 4 4 3 6 4 3 2 2 3 4 3 4 3 3 3 3 3 4 6 7 7 8 8 8 8 9 7 7 8 9 9 9 9 8
7 7 6 3 2 2 4 5 3 4 5 2 3 3 4 2 2 2 2 2 1 2 4 3 2 3 6 5 5 6 6 7 9 9 10 10 11 9 9 8 8 9 9 7
4 4 4 4 4 5 4 6 4 3 3 3 2 2 1 2 0 1 1 3 3 2 4 2 1 7 6 6 5 5 6 7 8 9 9 10 10 10 9 9 7 8 8 6
3 4 6 3 3 3 4 4 2 1 1 2 3 2 2 1 3 1 1 2 2 3 2 4 2 6 6 5 5 6 4 6 8 8 8 9 8 8 7 6 5 6 7 5
3 4 2 2 3 1 3 1 2 2 1 1 2 2 3 2 1 0 2 3 1 2 3 3 2 5 5 4 5 5 5 5 6 5 7 7 7 7 7 6 6 7 6 6
3 6 2 1 3 3 3 2 2 3 2 0 2 2 4 2 2 3 1 1 3 4 2 2 5 4 3 4 5 5 5 5 6 6 6 6 6 6 5 5 5 4 5 5
4 2 2 1 3 2 2 2 3 4 2 2 2 4 2 2 3 1 2 4 4 3 2 3 3 5 6 5 6 6 6 6 6 6 5 6 5 5 6 7 4 5 5 4
Wind_Direction
291 307 309 297 311 10 57 85 359 252 46 5 191 228 258 256 287 303 290 283 271 255 336 294 1 301 169 254 183 153 155 85 277 245 238 183 185 193 176 215 172 191 43 266
287 297 305 295 293 61 132 325 266 335 96 165 259 306 283 283 264 268 265 290 307 12 19 314 285 311 348 19 166 166 173 120 320 316 33 40 150 181 194 214 52 231 177 234
277 284 282 286 288 355 109 139 321 321 52 245 159 271 267 253 302 298 301 287 275 287 269 228 292 313 1 325 336 65 73 85 117 238 293 241 313 342 275 212 197 172 220 221
270 274 279 275 276 250 113 184 217 210 279 262 295 259 301 291 296 279 236 288 323 350 270 294 271 276 325 9 18 50 84 123 353 279 277 277 266 253 255 262 247 233 266 226
261 266 268 267 259 179 129 171 176 313 294 296 12 3 286 307 346 320 297 287 329 303 272 265 285 253 313 273 339 82 22 139 42 279 316 329 290 249 243 218 247 273 256 268
261 259 253 247 236 149 186 208 237 111 259 17 354 256 280 298 314 289 320 314 309 286 263 267 259 276 281 271 325 103 107 116 71 279 342 326 297 347 293 210 193 173 244 255
262 262 248 245 240 177 124 203 137 111 267 202 216 263 281 296 308 292 299 303 254 249 286 304 276 253 273 246 259 209 148 149 144 252 347 268 258 317 36 314 208 187 196 214
252 255 252 247 243 204 158 159 157 169 252 229 258 252 292 307 283 270 277 332 311 301 260 245 225 325 336 265 221 208 200 139 178 178 194 292 302 348 62 15 283 214 273 205
252 247 248 246 242 229 123 174 133 194 176 231 233 261 271 292 307 321 281 329 312 261 221 195 161 174 206 263 317 224 118 103 135 143 218 252 243 348 322 46 272 343 276 180
249 245 246 247 241 231 144 195 179 183 264 243 193 206 226 197 303 278 303 313 341 355 329 54 140 222 270 234 241 165 118 146 209 213 240 280 294 324 314 102 297 334 253 160
253 252 247 243 237 229 170 195 178 187 233 270 241 244 184 195 204 221 296 345 6 304 9 320 237 183 248 279 239 189 179 166 193 166 210 254 355 319 229 139 51 29 59 90
256 250 243 238 233 227 202 205 171 158 180 264 297 257 243 231 208 157 299 206 197 299 307 12 310 314 351 11 263 291 32 230 239 182 196 49 358 43 33 55 94 71 74 78
257 252 240 234 231 223 208 174 145 164 229 268 256 250 247 230 214 190 190 255 137 254 244 299 295 273 270 284 261 304 243 151 208 236 138 96 54 59 63 56 55 58 82 90
253 252 247 241 236 226 204 163 168 152 141 225 275 258 263 231 204 205 210 240 239 198 226 274 294 281 133 265 293 336 345 331 9 5 122 100 70 69 82 64 64 59 56 67
255 254 252 246 240 224 201 142 179 169 152 222 274 299 257 214 172 194 190 215 215 253 250 260 264 258 305 217 246 44 355 356 345 28 6 61 64 37 70 90 80 81 81 73
256 264 267 244 223 154 114 116 209 191 118 48 310 281 296 33 176 177 184 177 159 184 317 284 261 239 227 294 71 20 28 347 44 99 49 67 79 70 68 76 84 82 83 87
256 239 147 144 126 119 125 177 185 153 109 181 256 276 269 227 181 126 134 132 182 142 205 225 256 274 189 302 83 24 36 22 55 67 117 76 36 94 81 83 81 82 81 80
155 148 127 129 116 91 46 12 141 124 109 168 229 256 352 354 203 145 182 119 154 217 216 232 245 290 38 99 54 24 12 22 38 50 60 79 83 74 74 80 83 76 70 70
121 117 112 89 28 53 61 129 130 77 129 182 202 201 241 111 237 146 64 132 163 191 206 213 168 51 52 44 82 43 20 24 352 68 71 76 76 75 63 63 64 74 79 79
118 114 79 91 244 127 108 103 121 272 278 238 235 201 227 146 228 168 158 158 207 192 210 126 85 89 84 63 61 43 31 20 350 28 95 86 76 72 65 72 72 78 90 89
69 102 81 220 154 88 103 137 181 178 212 215 228 201 170 199 245 154 193 171 141 189 198 210 126 107 93 85 66 46 46 45 47 60 56 56 82 100 99 82 77 80 82 80
159 116 103 100 119 148 182 184 184 215 227 209 193 210 187 197 162 221 159 162 116 179 141 105 96 119 110 97 68 47 41 49 53 56 71 73 75 78 86 90 86 82 82 76
101 80 127 162 177 183 200 177 195 206 202 198 169 88 74 8 48 51 103 203 200 128 44 88 75 121 112 112 111 80 64 69 70 59 60 66 69 64 81 83 60 74 77 64
113 136 136 209 197 220 189 172 192 56 316 94 89 82 140 248 37 356 145 266 49 80 119 203 146 130 125 125 117 118 86 81 84 73 76 72 69 67 65 71 79 89 80 69
78 74 136 196 248 189 237 238 87 8 304 79 99 67 78 71 85 138 82 39 50 167 200 198 150 115 120 107 100 104 97 92 86 85 90 86 86 84 75 65 70 85 91 88
69 40 75 27 66 349 22 11 64 360 341 305 51 114 66 89 116 60 220 90 224 237 199 165 117 107 105 116 113 102 100 99 100 99 103 100 96 100 96 84 76 85 117 125
55 22 35 78 95 144 9 12 343 320 4 88 49 68 149 63 57 90 47 180 221 182 97 89 114 136 137 126 119 115 118 116 116 117 115 112 111 120 121 119 122 109 106 103